[[{"header":{"parameterUnit":"m.s-1","parameterCategory":1,"la1":30.2991,"la2":30.254,"lo1":-89.0895,"lo2":-89.0444,"dx":0.0017,"dy":0.0017,"nx":28,"ny":28,"refTime":"2023-01-14T03:00:00:Z","depth":0,"parameterNumber":2,"parameterNumberName":"U-component_of_WINDS"},"data":[0,0,0,0,0,0,0,0,0,0,0,0,0,0,0,0,0,0,0,0,0,0,0,0,0,0,0,0,0,0,0,0,0,0,0,0,0,0,0,0,0,0,0,0,0,0,0,0,0,0,0,0,0,0,0,0,0,0,1.3791,1.3792,0,1.3794,1.3794,1.3794,1.3831,1.3832,1.3833,1.3834,1.3832,1.3831,1.383,0,0,0,0,0,0,0,0,0,0,0,0,0,1.3817,1.3816,1.3791,1.3792,1.3792,1.3794,1.3794,1.3794,1.3831,1.3832,1.3833,1.3834,1.3833,1.3831,1.383,0,0,0,0,0,0,0,0,0,0,0,0,0,1.3811,1.3816,1.3791,1.381,1.3812,1.3794,1.3794,1.3794,1.383,1.3832,1.3833,1.3835,1.3833,1.3832,1.383,1.3793,0,0,1.3826,1.3825,0,0,0,0,0,0,0,0,1.3811,1.381,1.3808,1.3809,1.3811,1.3814,1.3802,1.3793,1.383,1.3823,1.3834,1.3835,1.3825,1.3824,1.3821,1.3793,1.3793,1.3826,1.3825,1.3824,1.3824,0,0,0,0,0,0,0,1.3812,1.381,1.3792,1.3807,1.3809,1.3818,1.3819,1.3801,1.3816,1.3824,1.3827,1.3827,1.3826,1.3822,1.3821,1.3793,1.3826,1.3825,1.3824,1.3823,1.3734,1.3732,0,0,0,0,0,0,1.381,1.381,1.3792,1.3792,1.3815,1.3816,1.3817,1.3811,1.3816,1.3818,1.3825,1.3828,1.3824,1.3823,1.3821,1.3777,1.3824,1.3823,1.3822,1.3735,1.3733,1.3732,0,0,0,0,0,0,1.381,1.3808,1.3792,1.3802,1.3801,1.3814,1.3807,1.381,1.3807,1.3817,1.382,1.3819,1.3825,1.3823,1.38,1.3778,1.3822,1.3821,1.3737,1.3735,1.3732,1.3689,0,0,0,0,0,0,1.3811,1.3808,1.3794,1.3801,1.38,1.3771,1.3806,1.3809,1.3805,1.3809,1.3812,1.3814,1.3826,1.3802,1.3798,1.3777,1.382,1.3739,1.3736,1.3733,1.3692,1.3686,1.368,0,0,0,0,0,1.3811,1.3781,1.3793,1.3791,1.3783,1.377,1.3769,1.3784,1.3803,1.3789,1.3796,1.3814,1.3781,1.3799,1.3796,1.3773,1.374,1.3737,1.3733,1.3695,1.3687,1.368,0,0,0,0,0,0,1.3769,1.3782,1.3796,1.3767,1.3767,1.3776,1.3759,1.3775,1.3769,1.3772,1.3791,1.3792,1.3765,1.3767,1.3786,1.3737,1.3764,1.376,1.3736,1.3728,1.3722,1.3721,1.3819,0,0,0,0,0,1.3757,1.3745,1.3757,1.3731,1.373,1.3744,1.3739,1.3751,1.3752,1.3751,1.3756,1.3755,1.3745,1.3737,1.3728,1.3694,1.3695,1.3677,1.3671,1.3665,1.366,1.3642,1.3634,1.372,1.372,1.372,0,0,1.373,1.3736,1.3727,1.3722,1.3724,1.3711,1.3744,1.3729,1.3719,1.3749,1.3727,1.3731,1.373,1.3701,1.3689,1.3702,1.3637,1.3661,1.3657,1.3655,1.3638,1.3629,1.3622,1.3718,1.3718,1.3719,0,0,1.3674,1.3679,1.3657,1.3658,1.3661,1.3671,1.3665,1.3672,1.3676,1.3655,1.3677,1.3666,1.3648,1.3646,1.3643,1.359,1.3606,1.3586,1.3552,1.3534,1.3527,1.3521,1.35,1.3493,1.3582,1.3582,1.3582,0,1.364,1.3623,1.3643,1.3626,1.3623,1.3652,1.3629,1.3629,1.3628,1.3625,1.3641,1.3619,1.3621,1.3592,1.3579,1.3576,1.357,1.3585,1.3526,1.3521,1.3515,1.3496,1.3488,1.358,1.358,1.358,1.358,0,1.358,1.3568,1.355,1.3549,1.3544,1.3525,1.3541,1.3534,1.3547,1.3555,1.3533,1.3537,1.3529,1.3524,1.3536,1.3496,1.3505,1.3523,1.355,1.3504,1.3486,1.3479,1.3576,1.3577,1.3578,1.3578,0,0,1.3495,1.3508,1.3501,1.3501,1.3507,1.3497,1.3479,1.3473,1.3465,1.3464,1.3449,1.3434,1.3451,1.3448,1.3461,1.3445,1.3401,1.3466,1.3466,1.3452,1.3356,1.334,1.3331,1.3413,1.3412,1.3411,1.3355,0,1.344,1.341,1.3429,1.3396,1.3384,1.3412,1.3397,1.3398,1.3406,1.3396,1.3405,1.3393,1.3418,1.3416,1.3402,1.3409,1.3382,1.3414,1.3397,1.3396,1.3393,1.3322,1.3305,1.3253,1.3349,1.3348,1.3347,0,1.3371,1.3369,1.3335,1.3344,1.3339,1.3325,1.3321,1.3312,1.3314,1.3321,1.3318,1.3336,1.3318,1.3347,1.3321,1.3343,1.3338,1.334,1.3339,1.3335,1.3366,1.3315,1.3237,1.3228,1.3336,1.3337,1.3338,0,1.331,1.3299,1.3277,1.3276,1.3287,1.3276,1.3279,1.3283,1.3279,1.3275,1.3272,1.3266,1.3262,1.3257,1.3272,1.3292,1.3245,1.3275,1.3248,1.3248,1.3234,1.3235,1.3152,1.3235,1.3235,1.3235,1.3235,0,1.3246,1.3223,1.325,1.3236,1.3212,1.3234,1.3209,1.3215,1.3219,1.3206,1.3231,1.3218,1.324,1.323,1.3241,1.3218,1.3217,1.3221,1.3223,1.3217,1.3216,1.3211,1.3215,1.3233,1.3234,1.3234,1.3234,0,1.3172,1.3189,1.3167,1.3179,1.3182,1.3163,1.3173,1.3161,1.3172,1.3155,1.3153,1.3168,1.3157,1.3173,1.3163,1.3171,1.3139,1.3148,1.3138,1.314,1.3111,1.3113,1.3021,1.3009,1.3102,1.3101,1.31,0,1.3129,1.3112,1.3123,1.3117,1.312,1.311,1.3106,1.3127,1.3122,1.3124,1.3111,1.3102,1.3096,1.3077,1.3087,1.308,1.3088,1.3057,1.3087,1.3081,1.3085,1.3085,1.3083,1.3049,1.3048,1.3047,1.3047,0,1.3049,1.3058,1.3052,1.3049,1.3043,1.3041,1.3041,1.3035,1.3057,1.305,1.304,1.3035,1.3027,1.3017,1.3013,1.3016,1.3034,1.3038,1.3031,1.3022,1.3016,1.3017,1.3118,1.3039,1.3039,1.304,1.304,1.3041,1.2987,1.2974,1.298,1.2972,1.2975,1.2974,1.2963,1.2973,1.2966,1.296,1.2974,1.296,1.2964,1.296,1.2961,1.295,1.2964,1.2954,1.2951,1.2948,1.2943,1.302,1.295,1.295,1.2951,1.2951,1.2951,0,1.2907,1.2913,1.2906,1.2905,1.2899,1.292,1.2921,1.2914,1.2902,1.2905,1.2899,1.2887,1.2879,1.2889,1.2882,1.2872,1.288,1.2869,1.2868,1.2869,1.2932,1.2938,1.2862,1.2862,1.2862,1.2862,1.2862,1.2862,1.2864,1.2843,1.2853,1.2833,1.2839,1.2827,1.2826,1.2825,1.2827,1.2814,1.2807,1.2815,1.282,1.2814,1.2807,1.2811,1.2806,1.2791,1.2797,1.2856,1.2864,1.2872,1.2878,1.2791,1.2791,1.2735,1.2734,1.2734]},{"header":{"parameterUnit":"m.s-1","parameterCategory":1,"la1":30.2991,"la2":30.254,"lo1":-89.0895,"lo2":-89.0444,"dx":0.0017,"dy":0.0017,"nx":28,"ny":28,"refTime":"2023-01-14T03:00:00:Z","depth":0,"parameterNumber":3,"parameterNumberName":"V-component_of_WINDS"},"data":[0,0,0,0,0,0,0,0,0,0,0,0,0,0,0,0,0,0,0,0,0,0,0,0,0,0,0,0,0,0,0,0,0,0,0,0,0,0,0,0,0,0,0,0,0,0,0,0,0,0,0,0,0,0,0,0,0,0,-5.6054,-5.6056,0,-5.6227,-5.6229,-5.6231,-5.6178,-5.6174,-5.617,-5.6167,-5.6341,-5.6349,-5.6357,0,0,0,0,0,0,0,0,0,0,0,0,0,-5.5673,-5.5681,-5.6054,-5.6056,-5.6058,-5.6227,-5.6229,-5.6232,-5.6178,-5.6174,-5.6169,-5.6165,-5.6338,-5.6348,-5.6358,0,0,0,0,0,0,0,0,0,0,0,0,0,-5.5842,-5.5683,-5.6054,-5.6052,-5.6054,-5.6226,-5.6229,-5.6232,-5.6179,-5.6174,-5.6168,-5.6163,-5.6335,-5.6347,-5.6359,-5.6543,0,0,-5.6396,-5.6401,0,0,0,0,0,0,0,0,-5.5832,-5.5856,-5.605,-5.6053,-5.6055,-5.6175,-5.6159,-5.6336,-5.6181,-5.6131,-5.6167,-5.616,-5.629,-5.6306,-5.635,-5.6551,-5.6558,-5.6397,-5.6404,-5.6409,-5.6413,0,0,0,0,0,0,0,-5.5821,-5.5848,-5.6122,-5.6053,-5.6056,-5.6041,-5.6059,-5.6192,-5.6239,-5.6135,-5.6132,-5.6153,-5.629,-5.6338,-5.6354,-5.6561,-5.6396,-5.6407,-5.6415,-5.6419,-5.692,-5.6926,0,0,0,0,0,0,-5.5808,-5.5839,-5.6117,-5.6128,-5.5928,-5.6053,-5.6073,-5.6142,-5.6238,-5.6247,-5.6158,-5.615,-5.6321,-5.634,-5.636,-5.6581,-5.6409,-5.6421,-5.6427,-5.6914,-5.6921,-5.6928,0,0,0,0,0,0,-5.58,-5.5833,-5.611,-5.5982,-5.6016,-5.6065,-5.6143,-5.6148,-5.6196,-5.6255,-5.6262,-5.6199,-5.6317,-5.6343,-5.6498,-5.6586,-5.6426,-5.6437,-5.6907,-5.6916,-5.6925,-5.7024,0,0,0,0,0,0,-5.5789,-5.5831,-5.5902,-5.5984,-5.6024,-5.6247,-5.6149,-5.6156,-5.6218,-5.6209,-5.6295,-5.6304,-5.6315,-5.648,-5.651,-5.66,-5.6446,-5.6899,-5.6911,-5.6922,-5.7013,-5.7036,-5.7055,0,0,0,0,0,-5.5776,-5.5923,-5.5906,-5.594,-5.6114,-5.6252,-5.6274,-5.6284,-5.6225,-5.6297,-5.6334,-5.6301,-5.6571,-5.6496,-5.6529,-5.6624,-5.6894,-5.6908,-5.6921,-5.7004,-5.7031,-5.7054,0,0,0,0,0,0,-5.585,-5.5934,-5.5916,-5.6094,-5.6167,-5.6243,-5.6333,-5.6313,-5.6403,-5.6391,-5.6399,-5.6418,-5.6577,-5.6616,-5.6531,-5.6806,-5.6723,-5.6744,-5.6775,-5.6802,-5.6822,-5.681,-5.6456,0,0,0,0,0,-5.5887,-5.5993,-5.606,-5.6211,-5.6248,-5.6285,-5.6345,-5.6347,-5.6421,-5.6451,-5.6499,-5.6572,-5.6673,-5.6739,-5.6836,-5.7018,-5.7036,-5.71,-5.712,-5.7137,-5.7155,-5.7253,-5.7283,-5.6973,-5.6973,-5.6972,0,0,-5.5964,-5.6023,-5.609,-5.6227,-5.6283,-5.6391,-5.6311,-5.6429,-5.6509,-5.6469,-5.6618,-5.6656,-5.6737,-5.6907,-5.6984,-5.6944,-5.7244,-5.7155,-5.7167,-5.7177,-5.7271,-5.73,-5.7326,-5.6982,-5.698,-5.6979,0,0,-5.6161,-5.6217,-5.6348,-5.6406,-5.6492,-5.6515,-5.6546,-5.6626,-5.665,-5.68,-5.6772,-5.6866,-5.704,-5.7099,-5.7152,-5.737,-5.7343,-5.74,-5.7509,-5.7605,-5.7629,-5.7651,-5.7728,-5.7755,-5.7418,-5.7418,-5.7419,0,-5.6246,-5.641,-5.6418,-5.6539,-5.6599,-5.6568,-5.6701,-5.6756,-5.6869,-5.6911,-5.6864,-5.7082,-5.7134,-5.7317,-5.737,-5.7414,-5.7449,-5.7391,-5.7625,-5.7647,-5.7667,-5.7741,-5.777,-5.7425,-5.7424,-5.7423,-5.7423,0,-5.651,-5.6623,-5.6719,-5.6829,-5.69,-5.7026,-5.7053,-5.7123,-5.7118,-5.7146,-5.7298,-5.736,-5.7468,-5.7511,-5.7507,-5.7693,-5.7666,-5.7623,-5.7539,-5.7703,-5.7772,-5.78,-5.7434,-5.7432,-5.743,-5.7428,0,0,-5.6759,-5.6871,-5.6906,-5.6956,-5.7047,-5.7135,-5.7258,-5.7365,-5.7425,-5.7503,-5.7606,-5.7754,-5.7714,-5.7774,-5.7776,-5.786,-5.8028,-5.7807,-5.7808,-5.7845,-5.8235,-5.8267,-5.83,-5.801,-5.8016,-5.802,-5.8228,0,-5.6963,-5.7182,-5.7192,-5.7391,-5.7495,-5.7466,-5.7574,-5.7641,-5.767,-5.7761,-5.7792,-5.7896,-5.7836,-5.7872,-5.7954,-5.799,-5.8106,-5.7975,-5.8105,-5.811,-5.8086,-5.8336,-5.8371,-5.8564,-5.8255,-5.826,-5.8263,0,-5.7231,-5.7318,-5.7527,-5.7603,-5.7647,-5.7744,-5.7842,-5.793,-5.8005,-5.8019,-5.8086,-5.8076,-5.8201,-5.8113,-5.8285,-5.8196,-5.8249,-5.8275,-5.8282,-5.8295,-5.8197,-5.8355,-5.8626,-5.8655,-5.8306,-5.8302,-5.8299,0,-5.7391,-5.7561,-5.7707,-5.775,-5.7843,-5.7911,-5.7953,-5.8022,-5.8085,-5.817,-5.821,-5.8308,-5.8362,-5.8437,-5.8453,-5.8388,-5.8624,-5.8538,-5.8639,-5.8639,-5.8691,-5.8687,-5.8974,-5.8725,-5.8725,-5.8724,-5.8724,0,-5.7618,-5.7747,-5.7781,-5.7871,-5.8014,-5.8024,-5.8165,-5.8201,-5.8263,-5.8359,-5.8339,-5.8429,-5.8445,-5.8538,-5.8551,-5.869,-5.8715,-5.8729,-5.8731,-5.8731,-5.873,-5.8767,-5.8754,-5.8732,-5.873,-5.8729,-5.8728,0,-5.7822,-5.785,-5.8008,-5.8082,-5.8103,-5.8206,-5.8268,-5.8354,-5.838,-5.8502,-5.853,-5.8571,-5.868,-5.8703,-5.8831,-5.8839,-5.9005,-5.8994,-5.8981,-5.898,-5.9079,-5.9069,-5.94,-5.9443,-5.9166,-5.9169,-5.9171,0,-5.7965,-5.8064,-5.8149,-5.8212,-5.8257,-5.8359,-5.8422,-5.8435,-5.8502,-5.8594,-5.8669,-5.8775,-5.8861,-5.9036,-5.9076,-5.9173,-5.9164,-5.9273,-5.9179,-5.9175,-5.9165,-5.9159,-5.9169,-5.9291,-5.9294,-5.9297,-5.9299,0,-5.8217,-5.8225,-5.8318,-5.8417,-5.8494,-5.8571,-5.8645,-5.8698,-5.872,-5.8796,-5.8907,-5.8974,-5.9105,-5.9211,-5.9308,-5.9349,-5.9328,-5.9328,-5.9356,-5.9358,-5.9346,-5.9353,-5.903,-5.932,-5.9318,-5.9317,-5.9315,-5.9315,-5.8394,-5.848,-5.8553,-5.8657,-5.8714,-5.8784,-5.8868,-5.8904,-5.8997,-5.9105,-5.9107,-5.9228,-5.9298,-5.9427,-5.9474,-5.9568,-5.9534,-5.9575,-5.9586,-5.9596,-5.9605,-5.9331,-5.9586,-5.9585,-5.9585,-5.9584,-5.9584,0,-5.8644,-5.869,-5.8785,-5.8889,-5.8971,-5.8944,-5.9024,-5.9094,-5.9201,-5.9269,-5.9354,-5.9481,-5.9583,-5.9631,-5.9731,-5.9797,-5.9789,-5.9823,-5.9818,-5.9828,-5.963,-5.9595,-5.9827,-5.9827,-5.9827,-5.9827,-5.9827,-5.9827,-5.8784,-5.8928,-5.8945,-5.9116,-5.9159,-5.9279,-5.9326,-5.939,-5.9444,-5.9587,-5.9672,-5.9702,-5.9762,-5.9866,-5.9958,-5.9969,-6.0007,-6.0045,-6.0051,-5.9866,-5.9842,-5.9818,-5.9785,-6.0053,-6.0053,-6.0241,-6.0243,-6.0244]}]]